Location: Sabalos
(43.2860°N, 0.1414°E)
Time: 09:26:06
(UTC+00:00)

USA 267 - Pass Details

Date: 05 July 2020
Orbit: 1102 x 1106 km, 123.0° (Epoch: 02 August)

Event Time Altitude Azimuth Distance (km) Brightness Sun altitude
Exits shadow 21:33:58 - 99° (E) 3,058 5.2 -15.6°
Reaches altitude 10° 21:34:14 10° 98° (E) 2,957 5.1 -15.6°
Maximum altitude 21:40:25 47° 27° (NNE) 1,427 4.0 -16.2°
Drops below altitude 10° 21:46:37 10° 317° (NW) 2,967 6.8 -16.9°
Sets 21:49:11 0° 312° (NW) 3,927 7.6 -17.1°
